Tracking 29487 objects as of 11-Sep-2024
HD Live streaming from Space Station
objects crossing your sky now

FENGYUN 1C DEB

Track FENGYUN 1C DEB now!
10-day predictions


NORAD ID: 35147
Int'l Code: 1999-025DMB
Perigee: 684.4 km
Apogee: 745.2 km
Inclination: 99.5 °
Period: 98.9 minutes
Semi major axis: 7085 km
RCS: 0.0009 m2 (small)
Launch date: May 10, 1999
Source: People's Republic of China (PRC)
Launch site: Taiyaun Space Center, China (TSC)

Note: This is SATELLITE DEBRIS
Your satellite tracking list
Your tracking list is empty




NASA's NSSDC Master Catalog

Two Line Element Set (TLE):
1 35147U 99025DMB 24254.43566471  .00034132  00000-0  77153-2 0  9996
2 35147  99.5159 250.1632 0042905 142.6821 217.7366 14.55523613870735
Source of the keplerian elements: AFSPC